Theta_e
309 309 309 309 310 309 309 309 308 308 313 314 316 314 310 310 313 315 315 315 315 315 316 316 316 316 316 315 314 314 317 317 316 317 317 316 317 316 316 316 316 316 316 316 316
310 309 309 309 309 309 308 308 308 312 314 317 316 315 315 315 315 315 315 315 315 315 316 316 317 316 315 315 314 315 317 315 314 315 317 316 315 315 317 316 316 316 316 315 316
310 310 309 309 309 308 308 310 311 314 316 316 316 315 314 315 315 315 315 315 315 315 315 316 316 316 315 314 313 313 317 315 315 315 315 315 315 315 316 317 316 315 315 315 316
309 310 310 309 309 309 310 313 314 316 315 317 318 314 315 314 316 316 315 316 315 315 315 314 316 315 315 316 313 316 314 315 316 314 314 316 314 315 315 315 314 314 314 315 315
310 310 311 310 309 309 311 314 315 315 316 317 316 314 314 315 316 315 315 315 315 315 315 315 315 314 316 315 315 318 316 315 315 313 313 313 315 315 315 314 315 314 315 315 315
310 311 312 310 309 310 312 314 314 315 316 318 318 314 315 315 315 315 314 315 315 315 315 315 315 315 315 315 317 315 315 315 314 313 314 315 315 314 315 315 315 315 315 315 315
310 311 312 310 310 310 311 313 314 315 316 317 319 315 315 315 315 314 315 315 315 315 315 315 316 316 314 316 314 314 316 314 314 313 315 314 316 316 316 314 315 315 315 315 316
307 311 312 311 310 310 310 312 314 314 314 315 317 317 316 315 315 315 315 315 314 314 315 315 315 315 315 314 314 314 314 316 316 313 313 315 317 316 315 315 315 315 315 316 318
306 310 312 311 312 313 312 311 311 312 312 314 316 317 317 315 315 315 315 315 315 314 315 315 315 314 314 315 316 315 316 316 316 315 314 316 317 316 316 316 315 315 318 319 320
307 308 312 312 316 316 318 318 319 316 312 314 316 317 316 315 315 315 315 315 315 314 314 314 313 316 315 316 316 316 316 316 316 316 315 316 316 317 316 315 314 319 320 320 321
307 308 312 313 316 316 316 317 316 318 316 317 317 317 317 316 316 315 315 315 315 314 316 312 315 315 316 315 315 315 315 316 316 315 314 316 317 317 316 315 316 321 321 320 320
307 309 312 315 316 317 316 316 316 316 316 316 316 315 316 317 317 315 315 315 315 316 314 315 317 315 313 313 314 315 316 317 316 314 315 317 317 317 316 314 320 321 320 320 319
307 310 312 315 317 317 316 316 316 317 316 317 317 315 316 317 317 316 315 315 315 315 315 316 315 312 313 315 315 317 316 316 316 316 315 315 316 315 314 316 320 321 320 320 319
308 311 316 317 317 316 316 316 316 317 323 322 319 318 318 316 315 314 315 314 314 316 314 315 313 314 314 315 315 317 314 315 315 316 316 314 314 315 315 318 320 321 321 320 320
308 311 316 317 317 316 316 315 316 319 327 321 318 316 315 314 313 314 314 314 315 315 315 317 315 315 316 316 315 317 315 315 315 316 314 315 315 316 316 317 316 320 321 320 320
309 311 314 316 317 314 314 316 317 325 325 318 314 314 315 316 316 316 315 314 313 314 314 314 312 314 315 315 315 314 315 316 312 313 316 315 316 316 316 316 316 320 321 319 317
314 314 315 316 315 315 315 318 324 325 318 316 315 313 316 316 317 317 316 317 317 318 318 316 315 314 314 316 315 316 318 317 316 315 314 316 315 315 315 315 317 321 320 318 315
314 310 313 315 316 315 314 321 326 318 316 314 313 315 317 316 316 317 317 317 316 315 316 317 316 316 315 316 316 316 316 316 317 316 316 315 316 315 317 320 320 320 320 318 314
314 317 317 319 316 315 316 321 317 317 315 315 315 315 316 315 316 317 316 316 316 316 318 318 317 315 315 316 316 315 316 314 318 317 317 315 315 315 317 321 320 319 317 315 314
314 321 318 317 315 316 319 319 318 316 316 314 316 316 317 316 317 317 317 316 317 315 315 317 317 316 315 314 314 315 314 317 318 319 317 314 315 315 315 318 315 318 314 314 314
313 321 317 318 315 318 321 319 317 315 316 316 315 316 316 316 316 317 317 316 317 316 315 316 315 316 315 315 314 314 316 316 315 318 319 316 313 315 316 315 315 314 314 314 313
313 320 315 316 316 310 315 312 313 316 316 316 315 314 316 316 317 317 317 316 315 315 316 315 317 316 314 314 312 314 315 316 320 317 318 320 318 315 315 314 314 313 314 314 314
311 313 312 315 315 313 313 314 314 315 314 315 315 315 314 316 318 316 316 315 313 315 315 316 316 316 312 311 313 312 313 313 314 314 316 318 317 315 314 314 313 314 314 314 313
310 314 309 308 308 311 313 314 315 313 313 313 313 313 315 315 315 316 315 314 312 311 312 314 317 315 314 312 312 313 313 313 315 316 316 316 316 315 315 315 314 314 315 313 312
305 309 306 309 308 310 310 313 315 315 313 312 313 313 313 315 314 314 313 312 311 310 311 313 315 315 313 311 312 313 313 314 314 314 315 316 315 315 315 315 314 314 313 312 312
303 305 306 307 307 310 310 312 313 313 312 313 314 312 311 312 312 311 312 310 309 310 311 310 314 311 313 313 313 315 314 313 314 315 315 315 316 313 313 312 314 314 312 312 311
301 303 307 305 308 309 311 311 312 310 311 311 310 310 310 310 309 308 308 308 308 310 310 312 312 314 313 313 312 313 313 313 313 315 315 317 315 314 313 313 312 312 312 311 310
Wind_Speed
10 9 10 10 10 9 8 7 9 14 16 14 13 14 15 16 17 17 21 17 13 14 9 6 6 7 10 9 7 4 4 5 3 3 2 6 7 9 6 9 8 9 8 12 13
9 9 9 10 10 10 10 10 13 17 16 13 12 14 22 22 21 22 18 18 16 12 9 6 9 9 7 5 5 4 4 3 1 1 2 5 4 8 6 11 10 19 16 15 16
9 9 9 9 9 10 11 14 16 17 13 10 10 17 20 17 14 13 14 12 14 13 8 6 10 10 7 7 7 3 4 3 2 2 2 1 2 3 6 9 12 17 20 22 20
9 9 9 9 9 10 12 14 16 13 11 9 7 5 7 1 4 9 11 11 13 16 16 9 5 4 4 5 3 4 3 1 2 3 0 3 1 1 1 5 11 20 22 20 21
8 7 8 8 8 8 11 13 12 11 9 11 10 6 8 12 8 6 7 5 10 15 19 19 15 5 5 4 3 6 4 4 5 3 1 1 6 0 3 9 17 21 20 19 20
7 6 7 7 7 7 8 9 9 8 8 9 11 10 12 14 7 6 6 8 9 13 15 18 12 9 7 3 5 3 4 5 4 7 2 7 6 1 12 17 21 21 21 19 21
6 5 6 6 7 7 6 7 6 5 6 6 9 12 13 8 5 6 9 11 11 11 11 12 12 6 4 3 3 2 2 2 4 6 4 13 6 5 14 15 21 20 17 19 19
7 3 5 5 6 6 6 5 4 2 1 4 6 6 6 8 9 10 10 10 10 8 7 9 8 12 5 2 4 4 3 6 8 8 1 9 9 15 19 21 24 19 15 14 16
8 2 3 5 6 5 4 3 2 0 1 1 3 4 4 6 7 6 6 8 8 7 7 6 6 6 4 3 2 5 5 11 8 7 6 5 18 12 25 21 20 16 14 16 19
9 2 4 6 6 5 3 2 1 1 1 2 2 5 3 3 2 3 2 4 7 5 4 6 5 3 3 6 4 8 8 8 12 8 10 11 15 18 30 19 15 12 17 19 21
11 4 5 7 7 7 3 1 2 1 3 0 1 2 1 0 3 1 1 1 3 6 4 5 3 5 3 2 1 3 6 12 12 10 5 14 17 19 29 15 8 13 17 19 20
12 6 7 7 5 5 7 6 6 3 4 2 6 7 7 6 3 3 2 2 2 3 0 1 6 4 2 2 4 6 9 12 9 5 6 15 22 18 14 2 6 10 13 16 19
13 7 8 8 7 6 7 8 5 5 0 3 1 1 1 3 2 2 6 3 1 1 1 2 1 3 3 5 8 9 8 7 9 10 12 11 14 2 3 5 4 7 7 10 14
13 7 8 6 4 4 5 6 5 3 1 2 1 1 1 1 1 4 7 2 2 2 3 4 0 4 5 8 5 8 3 6 10 14 13 4 8 3 3 3 1 4 7 9 13
12 7 6 3 3 4 7 8 2 1 3 1 2 2 1 1 4 5 0 2 4 4 3 3 3 8 7 6 4 3 6 8 16 15 6 5 5 2 2 5 8 4 4 7 13
11 7 4 3 5 9 8 1 1 2 3 2 2 3 2 6 4 6 2 0 1 2 1 6 2 2 1 2 1 4 7 14 0 2 4 3 2 3 5 5 13 4 3 10 17
7 4 5 3 5 10 5 1 1 2 2 3 3 3 4 4 2 6 4 4 3 4 3 6 2 1 0 3 2 6 12 5 4 3 5 4 9 11 11 11 9 5 2 6 17
6 2 2 1 6 9 3 1 3 2 3 1 2 3 2 5 2 5 3 4 2 2 1 2 4 0 2 2 9 7 3 2 7 8 18 17 9 2 1 2 5 6 5 9 20
9 2 1 2 7 8 1 3 1 1 3 3 1 2 1 1 3 4 2 1 1 1 3 4 4 4 6 12 4 3 4 3 10 10 7 4 5 10 4 5 6 5 8 17 21
9 6 6 4 8 6 3 3 2 0 4 1 1 1 1 1 2 3 2 1 1 2 2 1 10 4 2 2 4 7 3 5 4 5 7 7 12 12 6 2 10 10 13 18 18
6 3 11 5 7 4 3 2 0 2 8 2 2 2 2 2 2 2 2 2 2 1 1 4 3 4 5 5 14 10 9 5 4 5 7 14 11 3 6 12 7 6 15 14 14
6 2 14 5 4 3 2 4 6 5 8 4 2 2 1 2 1 2 2 1 4 2 7 3 2 9 15 13 6 7 9 9 6 10 8 11 17 11 9 3 5 20 16 13 8
7 6 12 4 3 3 3 2 4 7 6 6 4 5 3 1 2 3 2 4 5 5 4 2 2 7 5 3 2 3 4 6 6 5 19 14 15 3 5 20 22 20 20 9 5
6 3 8 12 8 2 3 3 3 7 4 4 3 4 4 2 1 3 5 1 5 13 8 6 4 9 9 15 14 18 18 17 14 7 17 19 25 25 20 17 23 25 14 5 10
9 4 4 4 5 5 2 1 2 4 4 7 3 7 4 3 5 4 3 7 7 7 2 2 4 5 13 19 18 19 20 19 14 19 11 21 20 22 20 13 17 19 11 13 17
5 5 4 1 4 3 4 3 1 2 3 2 2 6 4 5 6 9 8 6 5 2 3 2 3 3 12 11 8 16 18 17 13 11 14 17 17 5 19 12 19 17 15 19 24
12 10 3 2 2 1 1 1 1 3 2 1 3 5 5 5 10 20 20 20 18 9 5 2 2 2 5 6 15 12 4 7 11 8 10 10 10 13 12 14 14 20 24 25 27
Wind_Direction
60 55 46 42 43 48 50 62 88 105 106 91 71 72 80 95 88 79 61 55 54 53 63 74 83 116 83 71 60 70 76 92 97 109 42 344 349 7 340 353 8 356 350 337 342
52 50 47 47 49 52 67 87 103 113 108 91 73 94 96 94 86 70 60 57 53 44 52 67 92 96 74 51 35 52 79 84 116 125 319 323 329 336 352 11 9 6 5 351 346
40 43 44 46 56 65 84 102 111 114 106 85 85 117 113 106 74 47 59 58 49 37 36 70 103 91 62 40 20 47 86 124 214 315 281 318 28 314 359 12 7 349 343 348 345
34 35 39 45 58 79 99 112 118 114 99 71 68 124 201 272 78 50 49 53 52 48 58 67 129 69 71 64 25 116 80 54 348 319 262 134 213 309 50 343 344 343 340 335 333
36 36 36 43 60 81 108 120 119 109 87 71 59 97 107 98 99 80 64 67 71 57 54 57 65 75 66 53 85 46 10 340 338 8 148 181 348 145 349 332 335 334 333 331 333
33 39 37 50 74 91 110 124 120 104 91 68 57 96 107 92 103 89 70 72 70 58 54 55 57 84 83 73 44 338 307 321 19 21 60 353 333 350 342 339 333 336 334 333 330
25 39 40 61 84 94 116 133 131 107 95 59 58 94 82 90 93 85 84 78 63 55 58 55 50 80 124 141 9 9 42 79 29 355 2 344 279 313 331 329 332 335 339 338 332
21 46 53 73 82 88 98 139 155 124 86 44 51 89 84 84 92 84 75 59 44 27 37 41 56 75 55 21 39 35 55 349 354 347 46 341 299 298 322 330 333 342 344 345 344
17 73 86 100 86 64 65 87 116 201 311 14 58 71 89 91 91 74 56 41 16 31 69 42 79 71 47 52 90 39 333 330 331 326 316 335 303 304 317 326 332 342 354 350 343
21 74 119 122 90 50 55 37 43 33 351 300 325 112 113 71 25 3 5 12 24 72 30 38 53 86 67 31 15 332 327 316 305 321 326 301 290 307 312 327 333 350 356 355 353
27 76 127 129 100 63 55 33 4 50 333 180 104 34 181 150 314 320 292 284 15 63 40 12 105 77 71 107 113 282 282 294 290 314 292 304 299 302 303 325 353 359 2 1 2
28 78 126 126 111 78 66 83 54 348 324 329 249 258 248 270 303 233 243 171 54 46 339 118 78 188 143 168 231 260 284 291 292 269 286 303 298 296 300 320 32 8 11 10 8
29 82 117 121 106 89 77 61 7 339 357 352 43 174 187 220 258 317 191 184 174 170 172 215 162 117 215 233 276 284 267 293 292 305 276 291 282 287 102 141 55 34 30 25 16
30 89 121 118 105 75 43 14 360 6 72 32 118 93 212 248 57 340 203 206 128 240 186 257 67 208 238 275 260 295 202 296 287 308 305 2 292 257 232 233 345 6 17 8 6
30 89 121 67 90 27 341 326 301 297 114 141 102 99 71 37 320 25 34 225 244 219 203 284 250 292 290 290 186 312 315 301 301 292 301 232 256 140 274 251 350 343 1 349 345
30 75 108 78 27 2 349 2 136 213 106 107 54 25 90 29 33 350 22 277 31 173 286 281 295 257 302 90 9 332 316 315 186 258 247 110 292 219 222 263 319 311 301 346 355
19 104 103 79 11 5 1 147 179 59 314 37 25 33 93 17 39 23 11 24 351 326 355 326 319 325 240 247 159 322 324 317 292 280 295 165 295 265 282 273 272 282 290 335 352
17 135 157 15 352 354 19 101 80 61 46 71 22 90 87 11 44 347 13 349 113 76 299 335 313 302 161 332 306 312 267 307 300 306 300 294 253 283 288 273 216 240 305 328 337
10 178 165 350 346 347 93 74 90 80 306 351 70 93 115 114 337 340 13 297 35 72 359 314 253 288 267 304 259 143 230 358 283 280 279 260 270 267 227 229 238 247 325 337 338
12 126 51 21 350 355 81 113 128 324 321 206 209 198 210 223 264 355 319 46 77 77 349 297 300 289 311 252 196 257 141 251 255 280 269 273 285 275 272 234 304 301 339 337 339
29 117 9 354 353 38 79 97 309 18 14 311 211 217 207 217 227 254 276 94 37 101 306 319 249 275 301 258 289 276 256 249 285 240 269 290 278 255 254 318 311 311 331 342 357
25 66 8 6 33 33 54 349 351 354 9 14 85 72 31 120 258 264 259 323 19 38 337 36 281 286 289 303 299 256 269 259 246 262 245 274 273 293 283 8 319 320 319 321 338
17 1 14 31 66 33 344 13 34 13 25 12 50 38 13 90 321 240 282 141 56 36 22 349 239 305 287 142 154 322 273 280 281 275 263 273 270 152 216 310 325 323 320 303 327
12 14 18 54 55 30 13 9 350 24 59 47 53 72 30 9 352 280 276 228 358 336 332 227 237 229 260 289 303 291 280 277 272 265 276 263 276 291 296 308 322 318 316 297 325
30 58 20 354 23 14 343 4 5 12 34 27 97 66 26 298 289 258 257 306 318 336 79 23 261 234 265 281 283 281 285 286 273 263 259 281 294 304 317 343 312 311 309 320 323
43 4 344 346 317 330 356 21 44 354 334 10 29 342 299 250 265 294 303 302 276 355 25 356 270 280 280 286 288 291 280 291 278 279 267 275 294 8 308 313 291 283 303 314 317
18 359 5 333 335 253 101 357 317 332 200 39 359 313 279 280 290 284 279 267 253 269 292 269 247 272 286 317 311 282 233 308 307 301 285 288 296 309 329 340 315 304 305 306 309